www.pogodaiklimat.ru

Погода и климат >> Архив погоды >> Албания >> Влёра


ПОГОДА во Влёре

  • Прогноз погоды во Влёре
  • Монитор погоды во Влёре

АРХИВ ПОГОДЫ во Влёре

Время (UTC), дата Ветер
(напр.,м/с)
 
Видим.   Явления Облачность Т
(С)
Тd
(С)
f
(%)
Тe
(С)
Тes
(С)
Комфортность P
(гПа)
Po
(гПа)
Тmin
(С)
Tmax
(С)
R
(мм)
R24
(мм)
S
(см)
18 12.06 Ю 2 20 км ясно +30.4 +17.2 45 +34 +34 очень
душно
1011.8 1011.1 +32.4
21 12.06 штиль 0 15 км ясно +15.4 +6.4 55 +15 +15 1013.0 1012.3
06 13.06 штиль 0 20 км ясно +22.2 +16.7 71 +27 +34 душно 1012.9 1012.2 +19.8
09 13.06 ЮЗ 2 20 км ясно +29.6 +15.4 42 +32 +50 душно 1014.2 1013.5
12 13.06 ЮЗ 4 20 км ясно +32.6 +16.9 39 +36 +48 очень
душно
1013.9 1013.2
15 13.06 ЮЗ 6 20 км ясно +33.4 +10.1 24 +33 +35 жарко 1013.5 1012.8
18 13.06 штиль 0 20 км ясно +32.0 +9.5 25 +31 +31 жарко 1013.6 1012.9 +34.4
21 13.06 штиль 0 12 км ясно +27.8 +13.4 41 +30 +30 жарко 1014.3 1013.6
06 14.06 штиль 0 6000 м дымка ясно +20.2 +18.6 91 +23 +31 комфорт 1015.4 1014.7 +18.2
09 14.06 СЗ 4 12 км ясно +26.2 +19.1 65 +31 +43 очень
душно
1015.4 1014.8
12 14.06 ЮЗ 8 20 км ясно +28.4 +22.0 68 +37 +40 очень
душно
1015.9 1015.2
15 14.06 СЗ 4 20 км ясно +30.6 +18.3 48 +35 +40 очень
душно
1014.8 1014.1
18 14.06 СЗ 6 20 км ясно +28.0 +14.6 44 +30 +30 жарко 1014.4 1013.7 +31.2
21 14.06 СЗ 2 12 км ясно +25.2 +17.7 63 +29 +29 душно 1015.2 1014.5
06 15.06 штиль 0 20 км ясно +22.4 +18.8 80 +28 +35 душно 1012.0 1011.3 +19.8
09 15.06 СЗ 2 20 км ясно +28.6 +18.4 54 +33 +51 опасность
солнечного
удара
1012.2 1011.5
12 15.06 ЮВ 4 20 км 3/0
[Ci fib]
+31.0 +20.8 55 +38 +50 очень
душно
1011.3 1010.6
15 15.06 ЮЗ 6 20 км 5/0
[Ci fib]
+30.8 +21.0 56 +38 +41 очень
душно
1011.3 1010.7
18 15.06 ЮЗ 4 20 км 8/4 1380 м
[Cu med, cong Ci fib]
+27.4 +18.4 58 +32 +32 очень
душно
1010.5 1009.8 +31.6
21 15.06 ЮЗ 2 15 км 6/3 1380 м
[Cu hum Ci fib]
+26.4 +18.1 60 +31 +31 душно 1010.2 1009.5
06 16.06 штиль 0 20 км ясно +23.6 +19.3 77 +29 +36 душно 1010.3 1009.6 +21.6
09 16.06 З 4 20 км 1/0
[Ci fib]
+30.4 +19.1 51 +36 +47 очень
душно
1011.1 1010.4
12 16.06 СЗ 10 20 км 4/0
[Ci fib]
+30.6 +21.4 58 +39 +39 очень
душно
1011.6 1010.9
15 16.06 ЮЗ 6 20 км 5/0
[Ci fib]
+28.6 +19.6 58 +34 +37 очень
душно
1010.7 1010.0
18 16.06 ЮЗ 6 20 км 8/0
[Ci fib]
+26.6 +20.2 68 +33 +33 очень
душно
1010.4 1009.7 +30.8
21 16.06 СЗ 4 12 км 8/4 1500 м
[Cu med, cong Ci fib]
+23.0 +18.6 76 +29 +29 очень
душно
1011.2 1010.5
06 17.06 штиль 0 20 км 4/0
[Ci fib]
+22.6 +19.7 84 +29 +36 очень
душно
1010.8 1010.1 +21.0
09 17.06 ЮЗ 2 20 км 3/0
[Ac cast]
+28.0 +21.6 68 +36 +50 очень
душно
1011.6 1010.9
12 17.06 ЮЗ 4 20 км 3/3 1380 м
[Cu med, cong]
+29.8 +22.2 64 +39 +48 очень
душно
1011.1 1010.5
15 17.06 СЗ 4 20 км 8/8 1380 м
[Sc]
+28.0 +22.0 70 +36 +37 очень
душно
1010.9 1010.2
18 17.06 С 6 20 км 8/8 1380 м
[Sc]
+27.4 +20.2 65 +34 +34 очень
душно
1011.2 1010.5 +30.2
21 17.06 ЮЗ 4 12 км 8/8 1380 м
[Sc]
+23.6 +18.3 72 +28 +28 душно 1011.7 1011.0
06 18.06 штиль 0 20 км ясно +23.8 +21.1 85 +30 +37 очень
душно
1012.7 1012.0 +21.0
09 18.06 ЮЗ 4 20 км ясно +28.0 +20.3 63 +34 +46 очень
душно
1012.9 1012.2
12 18.06 ЮЗ 8 20 км 3/3 1380 м
[Cu med, cong]
+29.8 +21.0 59 +37 +40 очень
душно
1012.8 1012.1
15 18.06 ЮЗ 8 20 км 4/4 1380 м
[Cu med, cong]
+29.2 +19.8 57 +35 +36 очень
душно
1012.3 1011.6
18 18.06 СЗ 4 20 км 6/3 1380 м
[Cu med, cong Ci fib]
+17.2 +9.9 62 +17 +17 1013.8 1013.1 +30.4
21 18.06 штиль 0 15 км ясно +24.0 +20.3 80 +30 +30 очень
душно
1013.4 1012.7
06 19.06 штиль 0 20 км ясно +22.6 +17.5 73 +28 +35 душно 1012.1 1011.4 +20.2
09 19.06 ЮЗ 2 20 км ясно +27.4 +18.7 59 +32 +50 очень
душно
1012.5 1011.8
12 19.06 ЮЗ 6 20 км 4/4 1380 м
[Cu med, cong]
+29.6 +20.7 59 +37 +41 очень
душно
1012.4 1011.7
15 19.06 СЗ 6 20 км 6/4 1380 м
[Cu med, cong Ci fib]
+29.0 +19.6 57 +35 +36 очень
душно
1011.9 1011.2

 

Местоположение метеостанции Влёра (Албания): широта 40.47 долгота 19.48 высота над уровнем моря 1 м.

В архиве по умолчанию представлена погода во Влёре за последнюю неделю. Архивные данные за месяц целиком и за предыдущие месяцы, начиная с января 2011 года, Вы можете получить, выбрав интересующий диапазон дат из раскрывающегося списка и нажав кнопку "Ввод!".


*Определитесь, кто Вы:
робот инопланетянин человек

Внимание! Время в таблицах - всемирное. Для получения местного времени необходимо прибавить поправку, которая равна 1 ч.

Смотрите также архив погоды в соседних городах и на ближайших метеорологических станциях:

Погода на Сазани (Албания) (17 км)
Погода в Кучове (Албания) (51 км)
Погода в Гирокастре (Албания) (72 км)
Погода в Саранде (Албания) (79 км)
Погода в Дурресе (Албания) (92 км)
Погода в Отранто (Италия) (94 км)
Погода в Эльбасане (Албания) (96 км)
Погода в Тиране (Албания) (99 км)
Погода в Тиране Лапрака (Албания) (102 км)
Погода в Керкире (Греция) (102 км)

Пояснения к столбцам:

Ветер - указаны скорость ветра в м/с - средняя за 10 мин, порывы в срок и между сроками (в фигурных скобках) и направление, откуда дует ветер: С - северный, СВ - северо-восточный, В - восточный, ЮВ - юго-восточный, Ю - южный, ЮЗ - юго-западный, З - западный, СЗ - северо-западный.
Видимость - горизонтальная дальность видимости в метрах или километрах. При видимости от 1 до 10 км при отсутствии осадков обычно наблюдается дымка, при ухудшении видимости до 1 км и менее - туман. В сухую погоду видимость может ухудшаться дымом, пылью или мглою.
Явления - указаны атмосферные явления, наблюдавшиеся в срок или в последний час перед сроком; фигурными скобками обозначены явления, наблюдавшиеся между сроками (за 1-3 часа до срока); квадратными скобками обозначены град или гололедные отложения с указанием их диаметра в мм.
Облачность - указаны через наклонную черту общая и нижняя облачность в баллах и высота нижней границы облаков в метрах; квадратными скобками обозначены формы облаков: Ci - перистые, Cs - перисто-слоистые, Cc - перисто-кучевые, Ac - высококучевые, As - высокослоистые, Sc - слоисто-кучевые, Ns - слоисто-дождевые, Cu - кучевые, Cb - кучево-дождевые. Подробнее классификацию облаков см. в Атласе облаков (PDF).
T - Температура воздуха - температура, измеренная на высоте 2 м над землей.
Td - Температура точки росы - температура, при понижении до которой содержащийся в воздухе водяной пар достигнет насыщения.
f - Относительная влажность воздуха - влажноcть воздуха, измеренная на высоте 2 м над землей.
Te - Эффективная температура - температура, которую ощущает одетый по сезону человек в тени. Характеристика душности погоды. При расчете учитывается влияние влажности воздуха и скорости ветра на теплоощущения человека.
Tes - Эффективная температура на солнце - температура, которую ощущает человек, с поправкой на солнечный нагрев. Характеристика знойности погоды. Зависит от высоты солнца над горизонтом, облачности и скорости ветра. Ночью, в пасмурную погоду, а также при ветре 12 м/с и более поправка равна нулю.
P - Атмосферное давление - приведенное к уровню моря атмосферное давление.
Po - Атмосферное давление - измеренное на уровне метеостанции атмосферное давление.
Tmin - Минимальная температура - минимум температуры воздуха на высоте 2 м над землей.
Tmax - Максимальная температура - максимум температуры воздуха на высоте 2 м над землей.
R - Количество осадков - Количество выпавших осадков за период времени, мм. При наведении курсора мыши на число - период времени, за который выпало указанное количество осадков.
R24 - Количество осадков - Количество выпавших осадков за 24 часа, мм.
S - Снежный покров - Высота снежного покрова, см. При наведении курсора мыши на число - состояние снежного покрова и степень покрытия местности в баллах.